When you browse on this site, cookies collect data to enhance your experience and personalize the content and advertising you see.
Visit our Privacy Policy to learn more. By continuing to use the site, you agree to this use of cookies and data.
  • In United Kingdom
  • List of Countries
  • For 7 days
  • Water Temperature
  • Satellite Maps
  • Weather Map
  • Weather Widgets
  • user-avatar
    Login

    Hourly Weather Santa Catarina Juquila

    Today, 26 March, Tuesday

    Time Temperature Precipitation Wind Pressure Humidity
    00:00 +18°C° 0 mm 1 mps 638 mmHg 76%
    01:00 +16°C° 0 mm 1 mps 637 mmHg 70%
    02:00 +15°C° 0 mm 2 mps 637 mmHg 64%
    03:00 +15°C° 0 mm 2 mps 637 mmHg 58%
    04:00 +14°C° 0 mm 2 mps 637 mmHg 57%
    05:00 +14°C° 0 mm 2 mps 637 mmHg 56%
    06:00 +14°C° 0 mm 2 mps 636 mmHg 55%
    07:00 +16°C° 0 mm 2 mps 638 mmHg 49%
    08:00 +19°C° 0 mm 2 mps 639 mmHg 43%
    09:00 +23°C° 0 mm 1 mps 640 mmHg 37%
    10:00 +25°C° 0 mm 1 mps 641 mmHg 31%
    11:00 +28°C° 0 mm 1 mps 642 mmHg 25%
    12:00 +30°C° 0 mm 1 mps 642 mmHg 19%
    13:00 +30°C° 0 mm 2 mps 642 mmHg 20%
    14:00 +30°C° 0 mm 2 mps 641 mmHg 21%
    15:00 +30°C° 0 mm 2 mps 640 mmHg 22%
    16:00 +28°C° 0 mm 2 mps 639 mmHg 30%
    17:00 +25°C° 0 mm 2 mps 639 mmHg 38%
    18:00 +23°C° 0 mm 2 mps 638 mmHg 47%
    19:00 +22°C° 0 mm 1 mps 638 mmHg 51%
    20:00 +20°C° 0 mm 1 mps 638 mmHg 56%
    21:00 +18°C° 0 mm 1 mps 638 mmHg 60%
    22:00 +17°C° 0 mm 2 mps 638 mmHg 53%
    23:00 +16°C° 0 mm 2 mps 638 mmHg 46%

    Tomorrow, 27 March, Wednesday

    Time Temperature Precipitation Wind Pressure Humidity
    00:00 +16°C° 0 mm 2 mps 639 mmHg 40%
    01:00 +15°C° 0 mm 2 mps 638 mmHg 42%
    02:00 +15°C° 0 mm 2 mps 638 mmHg 44%
    03:00 +15°C° 0 mm 2 mps 637 mmHg 46%
    04:00 +14°C° 0 mm 2 mps 637 mmHg 50%
    05:00 +14°C° 0 mm 2 mps 637 mmHg 54%
    06:00 +14°C° 0 mm 2 mps 637 mmHg 58%
    07:00 +16°C° 0 mm 2 mps 638 mmHg 49%
    08:00 +19°C° 0 mm 2 mps 639 mmHg 40%
    09:00 +21°C° 0 mm 2 mps 641 mmHg 31%
    10:00 +25°C° 0 mm 2 mps 641 mmHg 26%
    11:00 +28°C° 0 mm 2 mps 642 mmHg 20%
    12:00 +31°C° 0 mm 1 mps 643 mmHg 15%
    13:00 +31°C° 0 mm 1 mps 642 mmHg 17%
    14:00 +31°C° 0 mm 2 mps 642 mmHg 19%
    15:00 +31°C° 0 mm 2 mps 641 mmHg 20%
    16:00 +28°C° 0 mm 2 mps 640 mmHg 29%
    17:00 +26°C° 0 mm 2 mps 639 mmHg 37%
    18:00 +24°C° 0 mm 2 mps 638 mmHg 45%
    19:00 +22°C° 0 mm 1 mps 638 mmHg 49%
    20:00 +20°C° 0 mm 1 mps 639 mmHg 53%
    21:00 +19°C° 0 mm 1 mps 639 mmHg 58%
    22:00 +17°C° 0 mm 2 mps 639 mmHg 54%
    23:00 +17°C° 0 mm 2 mps 639 mmHg 51%

    Day after tomorrow, 28 March, Thursday

    Time Temperature Precipitation Wind Pressure Humidity
    00:00 +17°C° 0 mm 2 mps 639 mmHg 48%
    01:00 +16°C° 0 mm 2 mps 639 mmHg 50%
    02:00 +16°C° 0 mm 2 mps 638 mmHg 52%
    03:00 +15°C° 0 mm 2 mps 637 mmHg 54%
    04:00 +15°C° 0 mm 2 mps 637 mmHg 56%
    05:00 +14°C° 0 mm 2 mps 637 mmHg 59%
    06:00 +14°C° 0 mm 2 mps 637 mmHg 61%
    07:00 +17°C° 0 mm 2 mps 639 mmHg 51%
    08:00 +20°C° 0 mm 2 mps 640 mmHg 42%
    09:00 +24°C° 0 mm 1 mps 642 mmHg 32%
    10:00 +26°C° 0 mm 1 mps 642 mmHg 27%
    11:00 +29°C° 0 mm 1 mps 643 mmHg 22%
    12:00 +31°C° 0 mm 1 mps 643 mmHg 17%
    13:00 +31°C° 0 mm 2 mps 642 mmHg 19%
    14:00 +30°C° 0 mm 2 mps 641 mmHg 21%
    15:00 +29°C° 0 mm 2 mps 640 mmHg 23%
    16:00 +27°C° 0 mm 2 mps 639 mmHg 31%
    17:00 +25°C° 0 mm 2 mps 638 mmHg 39%
    18:00 +23°C° 0 mm 2 mps 638 mmHg 47%
    19:00 +21°C° 0 mm 1 mps 638 mmHg 55%
    20:00 +20°C° 0 mm 1 mps 638 mmHg 64%
    21:00 +18°C° 0 mm 1 mps 638 mmHg 72%
    22:00 +18°C° 0 mm 1 mps 638 mmHg 71%
    23:00 +16°C° 0 mm 1 mps 639 mmHg 69%

    29 March, Friday

    Time Temperature Precipitation Wind Pressure Humidity
    00:00 +16°C° 0 mm 1 mps 639 mmHg 67%
    01:00 +16°C° 0 mm 1 mps 638 mmHg 64%
    02:00 +16°C° 0 mm 1 mps 637 mmHg 62%
    03:00 +16°C° 0 mm 1 mps 637 mmHg 59%
    04:00 +15°C° 0 mm 1 mps 637 mmHg 58%
    05:00 +15°C° 0 mm 1 mps 637 mmHg 57%
    06:00 +15°C° 0 mm 1 mps 636 mmHg 55%
    07:00 +19°C° 0 mm 1 mps 638 mmHg 48%
    08:00 +22°C° 0 mm 1 mps 639 mmHg 41%
    09:00 +23°C° 0 mm 0 mps 641 mmHg 33%
    10:00 +26°C° 0 mm 1 mps 641 mmHg 31%
    11:00 +27°C° 0 mm 2 mps 641 mmHg 29%
    12:00 +28°C° 0 mm 2 mps 641 mmHg 27%
    13:00 +28°C° 0 mm 2 mps 640 mmHg 29%
    14:00 +28°C° 0 mm 3 mps 639 mmHg 31%
    15:00 +28°C° 0 mm 3 mps 638 mmHg 33%
    16:00 +26°C° 0 mm 3 mps 638 mmHg 39%
    17:00 +25°C° 0 mm 2 mps 637 mmHg 45%
    18:00 +23°C° 0 mm 2 mps 637 mmHg 50%
    19:00 +21°C° 0 mm 1 mps 637 mmHg 59%
    20:00 +20°C° 0 mm 1 mps 637 mmHg 67%
    21:00 +16°C° 0 mm 0 mps 637 mmHg 76%
    22:00 +16°C° 0 mm 0 mps 637 mmHg 76%
    23:00 +15°C° 0 mm 0 mps 637 mmHg 77%

    30 March, Saturday

    Time Temperature Precipitation Wind Pressure Humidity
    00:00 +16°C° 0 mm 1 mps 637 mmHg 78%
    01:00 +16°C° 0 mm 1 mps 636 mmHg 78%
    02:00 +16°C° 0 mm 1 mps 636 mmHg 78%
    03:00 +15°C° 0 mm 1 mps 635 mmHg 77%
    04:00 +15°C° 0 mm 1 mps 635 mmHg 77%
    05:00 +15°C° 0 mm 1 mps 635 mmHg 76%
    06:00 +15°C° 0 mm 1 mps 636 mmHg 76%
    07:00 +19°C° 0 mm 1 mps 637 mmHg 65%
    08:00 +22°C° 0 mm 1 mps 638 mmHg 55%
    09:00 +24°C° 0 mm 1 mps 640 mmHg 45%
    10:00 +26°C° 0 mm 1 mps 640 mmHg 40%
    11:00 +27°C° 0 mm 2 mps 640 mmHg 34%
    12:00 +28°C° 0 mm 2 mps 640 mmHg 28%
    13:00 +28°C° 0 mm 3 mps 639 mmHg 30%
    14:00 +28°C° 0 mm 3 mps 638 mmHg 31%
    15:00 +28°C° 0 mm 3 mps 637 mmHg 32%
    16:00 +26°C° 0 mm 3 mps 637 mmHg 39%
    17:00 +24°C° 0 mm 2 mps 636 mmHg 45%
    18:00 +23°C° 0 mm 2 mps 636 mmHg 51%
    19:00 +21°C° 0 mm 1 mps 636 mmHg 59%
    20:00 +19°C° 0 mm 1 mps 636 mmHg 67%
    21:00 +16°C° 0 mm 0 mps 636 mmHg 76%
    22:00 +15°C° 0 mm 0 mps 636 mmHg 75%
    23:00 +16°C° 0 mm 1 mps 636 mmHg 74%

    31 March, Sunday

    Time Temperature Precipitation Wind Pressure Humidity
    00:00 +16°C° 0 mm 1 mps 636 mmHg 73%
    01:00 +16°C° 0 mm 1 mps 636 mmHg 72%
    02:00 +16°C° 0 mm 1 mps 635 mmHg 71%
    03:00 +16°C° 0 mm 1 mps 635 mmHg 69%
    04:00 +16°C° 0 mm 1 mps 635 mmHg 68%
    05:00 +16°C° 0 mm 1 mps 635 mmHg 67%
    06:00 +16°C° 0 mm 1 mps 635 mmHg 65%
    07:00 +19°C° 0 mm 1 mps 636 mmHg 58%
    08:00 +22°C° 0 mm 1 mps 638 mmHg 51%
    09:00 +25°C° 0 mm 1 mps 639 mmHg 44%
    10:00 +26°C° 0 mm 1 mps 639 mmHg 39%
    11:00 +27°C° 0 mm 2 mps 639 mmHg 35%
    12:00 +29°C° 0 mm 2 mps 639 mmHg 31%
    13:00 +29°C° 0 mm 2 mps 639 mmHg 32%
    14:00 +28°C° 0 mm 3 mps 638 mmHg 32%
    15:00 +28°C° 0 mm 3 mps 637 mmHg 33%
    16:00 +26°C° 0 mm 2 mps 637 mmHg 39%
    17:00 +25°C° 0 mm 2 mps 636 mmHg 45%
    18:00 +23°C° 0 mm 2 mps 636 mmHg 51%
    19:00 +21°C° 0 mm 1 mps 636 mmHg 60%
    20:00 +19°C° 0 mm 1 mps 636 mmHg 68%
    21:00 +15°C° 0 mm 0 mps 636 mmHg 77%
    22:00 +15°C° 0 mm 0 mps 636 mmHg 77%
    23:00 +15°C° 0 mm 0 mps 636 mmHg 77%
    Show more